Location: Ebersheim
(48.3033°N, 7.4991°E)
Time: 20:20:39
(UTC+00:00)

Cosmos 1627 Rocket - Pass Details

Date: 27 February 2020
Orbit: 950 x 1005 km, 82.9° (Epoch: 03 April)

Event Time Altitude Azimuth Distance (km) Brightness Sun altitude
Rises 19:29:41 0° 350° (N) 3,673 7.8 -23.8°
Reaches altitude 10° 19:32:12 10° 351° (N) 2,714 7.1 -24.2°
Maximum altitude 19:38:26 87° 82° (E) 965 4.3 -25.2°
Enters shadow 19:41:02 37° 170° (S) 1,433 5.1 -25.6°
